• In Hungary
  • List of Countries
  • For 7 days
  • Water Temperature
  • Satellite Maps
  • Weather Map
  • News
  • Weather Widgets
  • user-avatar
    Login

    Hourly Weather Slaboszowice

    Today, 19 November, Sunday

    Time Temperature Precipitation Wind Pressure Humidity
    00:00 0°C° 0 mm 5 mps 737 mmHg 76%
    01:00 +1°C° 0 mm 6 mps 736 mmHg 71%
    02:00 +1°C° 0 mm 6 mps 736 mmHg 74%
    03:00 0°C° 0 mm 5 mps 736 mmHg 77%
    04:00 0°C° 0 mm 4 mps 736 mmHg 80%
    05:00 0°C° 0 mm 4 mps 736 mmHg 82%
    06:00 -1°C° 0 mm 4 mps 736 mmHg 84%
    07:00 -1°C° 0 mm 4 mps 736 mmHg 85%
    08:00 0°C° 0 mm 5 mps 736 mmHg 81%
    09:00 +1°C° 0 mm 5 mps 736 mmHg 76%
    10:00 +2°C° 0 mm 5 mps 736 mmHg 72%
    11:00 +2°C° 0 mm 5 mps 736 mmHg 68%
    12:00 +3°C° 0 mm 5 mps 735 mmHg 65%
    13:00 +3°C° 0 mm 5 mps 735 mmHg 62%
    14:00 +2°C° 0 mm 5 mps 735 mmHg 65%
    15:00 +3°C° 0 mm 4 mps 735 mmHg 67%
    16:00 +1°C° 0 mm 4 mps 735 mmHg 70%
    17:00 +1°C° 0 mm 4 mps 734 mmHg 71%
    18:00 +1°C° 0 mm 5 mps 734 mmHg 71%
    19:00 0°C° 0 mm 5 mps 734 mmHg 72%
    20:00 +1°C° 0.2 mm 5 mps 734 mmHg 74%
    21:00 +1°C° 0.2 mm 6 mps 734 mmHg 76%
    22:00 +1°C° 0.2 mm 6 mps 734 mmHg 78%
    23:00 +1°C° 0.3 mm 6 mps 734 mmHg 79%

    Tomorrow, 20 November, Monday

    Time Temperature Precipitation Wind Pressure Humidity
    00:00 +1°C° 0.3 mm 6 mps 734 mmHg 79%
    01:00 +1°C° 0.3 mm 5 mps 735 mmHg 79%
    02:00 -1°C° 0 mm 6 mps 735 mmHg 80%
    03:00 -1°C° 0 mm 6 mps 735 mmHg 80%
    04:00 -2°C° 0 mm 6 mps 735 mmHg 81%
    05:00 -2°C° 0.2 mm 6 mps 735 mmHg 81%
    06:00 -2°C° 0.2 mm 7 mps 735 mmHg 80%
    07:00 -2°C° 0.2 mm 7 mps 736 mmHg 79%
    08:00 -1°C° 0.3 mm 8 mps 736 mmHg 80%
    09:00 -1°C° 0.3 mm 8 mps 737 mmHg 81%
    10:00 -1°C° 0.3 mm 8 mps 737 mmHg 81%
    11:00 -1°C° 0 mm 7 mps 738 mmHg 79%
    12:00 0°C° 0 mm 7 mps 738 mmHg 77%
    13:00 +1°C° 0 mm 6 mps 738 mmHg 75%
    14:00 0°C° 0 mm 5 mps 739 mmHg 76%
    15:00 0°C° 0 mm 4 mps 739 mmHg 77%
    16:00 0°C° 0 mm 3 mps 739 mmHg 79%
    17:00 +1°C° 0.2 mm 3 mps 739 mmHg 81%
    18:00 0°C° 0.2 mm 4 mps 739 mmHg 84%
    19:00 0°C° 0.2 mm 4 mps 739 mmHg 87%
    20:00 +1°C° 0.1 mm 3 mps 739 mmHg 88%
    21:00 0°C° 0.1 mm 3 mps 738 mmHg 89%
    22:00 0°C° 0.1 mm 3 mps 738 mmHg 90%
    23:00 0°C° 0.2 mm 3 mps 738 mmHg 91%

    Day after tomorrow, 21 November, Tuesday

    Time Temperature Precipitation Wind Pressure Humidity
    00:00 0°C° 0.2 mm 3 mps 737 mmHg 91%
    01:00 +2°C° 0.2 mm 2 mps 737 mmHg 91%
    02:00 +2°C° 0.5 mm 2 mps 736 mmHg 92%
    03:00 +2°C° 0.5 mm 2 mps 736 mmHg 93%
    04:00 +2°C° 0.5 mm 2 mps 735 mmHg 93%
    05:00 +2°C° 0.5 mm 2 mps 735 mmHg 94%
    06:00 +3°C° 0.5 mm 1 mps 735 mmHg 95%
    07:00 +2°C° 0.5 mm 1 mps 734 mmHg 95%
    08:00 +3°C° 0.2 mm 1 mps 734 mmHg 96%
    09:00 +3°C° 0.2 mm 1 mps 735 mmHg 96%
    10:00 +3°C° 0.2 mm 1 mps 735 mmHg 96%
    11:00 +4°C° 0 mm 1 mps 735 mmHg 95%
    12:00 +3°C° 0 mm 0 mps 735 mmHg 93%
    13:00 +3°C° 0 mm 0 mps 735 mmHg 92%
    14:00 +3°C° 0.1 mm 0 mps 735 mmHg 93%
    15:00 +3°C° 0.1 mm 0 mps 736 mmHg 93%
    16:00 +2°C° 0.1 mm 0 mps 736 mmHg 94%
    17:00 +3°C° 0.1 mm 1 mps 736 mmHg 94%
    18:00 +3°C° 0.1 mm 1 mps 737 mmHg 94%
    19:00 +3°C° 0.1 mm 1 mps 737 mmHg 94%
    20:00 +2°C° 0 mm 1 mps 737 mmHg 94%
    21:00 +2°C° 0 mm 1 mps 737 mmHg 94%
    22:00 +2°C° 0 mm 1 mps 738 mmHg 94%
    23:00 +2°C° 0 mm 1 mps 738 mmHg 94%

    22 November, Wednesday

    Time Temperature Precipitation Wind Pressure Humidity
    00:00 +2°C° 0 mm 1 mps 738 mmHg 94%
    01:00 +1°C° 0 mm 1 mps 738 mmHg 94%
    02:00 +1°C° 0 mm 1 mps 738 mmHg 95%
    03:00 +1°C° 0 mm 1 mps 738 mmHg 95%
    04:00 -1°C° 0 mm 2 mps 738 mmHg 95%
    05:00 +1°C° 0 mm 2 mps 739 mmHg 95%
    06:00 +1°C° 0 mm 2 mps 739 mmHg 95%
    07:00 +1°C° 0 mm 2 mps 739 mmHg 95%
    08:00 +1°C° 0.1 mm 3 mps 739 mmHg 94%
    09:00 +2°C° 0.1 mm 3 mps 738 mmHg 94%
    10:00 +3°C° 0.1 mm 4 mps 738 mmHg 94%
    11:00 +4°C° 0 mm 4 mps 738 mmHg 92%
    12:00 +5°C° 0 mm 4 mps 738 mmHg 90%
    13:00 +6°C° 0 mm 4 mps 737 mmHg 88%
    14:00 +6°C° 0 mm 4 mps 737 mmHg 87%
    15:00 +5°C° 0 mm 4 mps 737 mmHg 86%
    16:00 +5°C° 0 mm 4 mps 737 mmHg 86%
    17:00 +5°C° 0 mm 4 mps 738 mmHg 85%
    18:00 +5°C° 0 mm 4 mps 738 mmHg 84%
    19:00 +4°C° 0 mm 4 mps 738 mmHg 83%
    20:00 +4°C° 0 mm 4 mps 739 mmHg 83%
    21:00 +4°C° 0 mm 4 mps 739 mmHg 83%
    22:00 +4°C° 0 mm 4 mps 739 mmHg 82%
    23:00 +4°C° 0 mm 4 mps 740 mmHg 83%

    23 November, Thursday

    Time Temperature Precipitation Wind Pressure Humidity
    00:00 +4°C° 0 mm 4 mps 740 mmHg 83%
    01:00 +4°C° 0 mm 4 mps 740 mmHg 83%
    02:00 +4°C° 0 mm 4 mps 740 mmHg 83%
    03:00 +3°C° 0 mm 3 mps 740 mmHg 83%
    04:00 +3°C° 0 mm 3 mps 740 mmHg 82%
    05:00 +3°C° 0 mm 3 mps 741 mmHg 82%
    06:00 +3°C° 0 mm 3 mps 741 mmHg 81%
    07:00 +3°C° 0 mm 3 mps 741 mmHg 80%
    08:00 +4°C° 0 mm 3 mps 741 mmHg 75%
    09:00 +5°C° 0 mm 3 mps 742 mmHg 71%
    10:00 +8°C° 0 mm 3 mps 742 mmHg 66%
    11:00 +8°C° 0 mm 3 mps 742 mmHg 64%
    12:00 +9°C° 0 mm 3 mps 742 mmHg 63%
    13:00 +10°C° 0 mm 3 mps 742 mmHg 61%
    14:00 +9°C° 0 mm 3 mps 742 mmHg 65%
    15:00 +8°C° 0 mm 3 mps 742 mmHg 70%
    16:00 +7°C° 0 mm 3 mps 742 mmHg 75%
    17:00 +7°C° 0 mm 3 mps 742 mmHg 77%
    18:00 +5°C° 0 mm 3 mps 742 mmHg 78%
    19:00 +5°C° 0 mm 4 mps 743 mmHg 80%
    20:00 +5°C° 0 mm 4 mps 743 mmHg 82%
    21:00 +5°C° 0 mm 4 mps 743 mmHg 84%
    22:00 +5°C° 0 mm 4 mps 743 mmHg 85%
    23:00 +5°C° 0 mm 4 mps 743 mmHg 86%

    24 November, Friday

    Time Temperature Precipitation Wind Pressure Humidity
    00:00 +5°C° 0 mm 4 mps 744 mmHg 87%
    01:00 +4°C° 0 mm 3 mps 744 mmHg 88%
    02:00 +4°C° 0 mm 3 mps 744 mmHg 89%
    03:00 +4°C° 0 mm 3 mps 744 mmHg 89%
    04:00 +4°C° 0 mm 3 mps 744 mmHg 90%
    05:00 +4°C° 0 mm 3 mps 744 mmHg 90%
    06:00 +4°C° 0 mm 3 mps 744 mmHg 90%
    07:00 +4°C° 0 mm 3 mps 744 mmHg 90%
    08:00 +5°C° 0 mm 3 mps 745 mmHg 87%
    09:00 +7°C° 0 mm 3 mps 745 mmHg 84%
    10:00 +8°C° 0 mm 3 mps 745 mmHg 80%
    11:00 +9°C° 0 mm 3 mps 745 mmHg 78%
    12:00 +9°C° 0 mm 3 mps 745 mmHg 76%
    13:00 +10°C° 0 mm 2 mps 744 mmHg 73%
    14:00 +9°C° 0 mm 2 mps 744 mmHg 77%
    15:00 +8°C° 0 mm 2 mps 744 mmHg 82%
    16:00 +7°C° 0 mm 2 mps 744 mmHg 86%
    17:00 +7°C° 0 mm 2 mps 744 mmHg 87%
    18:00 +6°C° 0 mm 2 mps 744 mmHg 88%
    19:00 +6°C° 0 mm 2 mps 744 mmHg 89%
    20:00 +6°C° 0 mm 2 mps 744 mmHg 89%
    21:00 +5°C° 0 mm 2 mps 744 mmHg 89%
    22:00 +5°C° 0 mm 2 mps 744 mmHg 90%
    23:00 +5°C° 0 mm 2 mps 743 mmHg 89%
    Show more